CW6395 Weather Reports


time (UTC)temp
F
wind
direction
speed
knots
gust
knots
rain 1hr
in
rain 24hr
in
rain mn
in
humidity
%
barometer
mb
20260503200016 64 338 6.1 10.4 0.00 0.01 0.00 46 1015.5
20260503195516 64 293 3.5 10.4 0.00 0.01 0.00 44 1015.5
20260503195447 62 248 4.3 12.2 0.00 0.01 0.00 46 1015.7
20260503131017 52 338 7.8 12.2 0.00 0.08 0.00 69 1017.0
20260503081016 46 0.0 0.9 0.00 0.16 0.00 89 1012.8
20260503072016 46 0.0 0.9 0.00 0.16 0.00 90 1012.2
20260503071036 46 0.0 0.9 0.00 0.16 0.00 90 1012.1
20260503055015 48 0.0 0.0 0.00 0.16 0.00 88 1011.7
20260503054036 49 0.0 0.0 0.00 0.16 0.00 87 1011.7
20260503053016 49 0.0 0.0 0.00 0.16 0.00 87 1011.6
20260503052035 49 0.0 0.0 0.00 0.16 0.00 87 1011.6
20260503051015 49 0.0 0.0 0.00 0.16 0.00 87 1011.7
20260503050015 50 0.0 0.0 0.00 0.16 0.00 87 1011.8
20260503045016 50 0.0 0.0 0.00 0.16 0.00 86 1011.6
20260503044015 50 0.0 0.9 0.00 0.16 0.00 86 1011.8
20260503043017 50 0.0 0.0 0.00 0.16 0.00 87 1011.7
20260503042017 50 0.0 0.0 0.00 0.16 0.00 86 1011.7
20260503041038 51 0.0 0.0 0.00 0.16 0.00 86 1011.7
20260503040016 51 0.0 0.0 0.00 0.16 0.16 86 1011.7
20260503035017 51 0.0 1.7 0.00 0.16 0.16 87 1011.8
20260503034017 50 0.0 1.7 0.00 0.16 0.16 88 1011.6
20260503033018 51 0.0 0.0 0.00 0.16 0.16 88 1011.6
20260503032017 51 0.0 0.0 0.00 0.16 0.16 88 1011.6
20260503031017 51 0.0 0.0 0.00 0.16 0.16 87 1011.5
20260503030017 51 0.0 0.0 0.00 0.16 0.16 88 1011.6
20260503025017 51 0.0 0.0 0.00 0.17 0.16 88 1011.6
20260503024017 51 0.0 0.0 0.00 0.17 0.16 87 1011.7
20260503023017 51 0.0 0.9 0.00 0.17 0.16 87 1011.5
20260503022017 51 0.0 0.0 0.00 0.17 0.16 86 1011.7
20260503021017 51 0.0 0.0 0.00 0.17 0.16 85 1011.6
20260503020017 52 0.0 0.9 0.00 0.17 0.16 85 1011.6
20260503015017 51 338 0.9 3.5 0.00 0.17 0.16 85 1011.7
20260503014017 52 0.0 0.9 0.00 0.17 0.16 88 1011.7
20260503013037 52 0.0 0.9 0.00 0.17 0.16 89 1011.6
20260503012017 52 0.0 0.9 0.00 0.17 0.16 89 1011.2
20260503011017 52 0.0 0.9 0.00 0.17 0.16 89 1011.2
20260503010017 52 0 0.9 1.7 0.00 0.17 0.16 89 1011.1
20260503005017 53 338 3.5 4.3 0.00 0.17 0.16 90 1010.9
20260503004017 53 338 0.9 3.5 0.00 0.17 0.16 90 1010.9
20260503003017 53 338 0.9 1.7 0.00 0.17 0.16 90 1010.8
20260503002017 53 338 0.9 1.7 0.00 0.17 0.16 89 1010.8
20260503001017 53 0.0 1.7 0.00 0.17 0.16 90 1010.9
20260503000017 53 338 0.9 2.6 0.00 0.17 0.16 89 1010.7
20260502235017 53 0.0 0.9 0.00 0.17 0.16 89 1010.5
20260502234017 53 0.0 1.7 0.00 0.17 0.16 87 1010.4
20260502233037 54 338 0.9 1.7 0.00 0.17 0.16 87 1010.2
20260502232017 54 338 2.6 4.3 0.00 0.17 0.16 87 1009.9
20260502231017 54 338 1.7 5.2 0.00 0.17 0.16 87 1010.0
20260502230016 54 338 0.9 3.5 0.00 0.17 0.16 87 1010.0
20260502225037 54 338 2.6 5.2 0.00 0.17 0.16 87 1010.1
20260502224016 54 338 2.6 4.3 0.00 0.17 0.16 87 1010.1
20260502223017 53 338 3.5 5.2 0.00 0.17 0.16 86 1010.1
20260502222017 53 338 3.5 5.2 0.00 0.17 0.16 87 1010.1
20260502221016 53 0 3.5 6.1 0.00 0.17 0.16 87 1010.0
20260502220017 54 0 3.5 6.1 0.00 0.17 0.16 87 1010.2
20260502215017 54 338 3.5 7.8 0.00 0.17 0.16 87 1010.2
20260502214017 54 23 2.6 7.0 0.01 0.17 0.16 87 1010.3
20260502213036 54 0 3.5 6.1 0.01 0.17 0.16 89 1010.3
20260502212016 54 338 5.2 9.6 0.01 0.17 0.16 89 1010.3
20260502211016 54 338 7.0 9.6 0.01 0.17 0.16 90 1010.2
20260502210016 54 338 5.2 8.7 0.01 0.17 0.16 91 1010.2
20260502205036 54 338 6.1 9.6 0.01 0.17 0.16 90 1010.1
20260502204016 54 338 7.0 10.4 0.01 0.16 0.15 90 1010.0
20260502203016 54 338 4.3 8.7 0.01 0.16 0.15 91 1010.1
20260502202036 53 23 3.5 7.0 0.01 0.16 0.15 90 1010.1
20260502201016 53 23 1.7 6.1 0.01 0.16 0.15 89 1010.1